Weather History for KMFI - February, 2013

Change the Weather History Date:

Saturday, February 23, 2013

  Actual Average Record
Temperature  
Mean Temperature 24 °F -  
Max Temperature 26 °F 33 °F 52 °F (1918)
Min Temperature 21 °F 14 °F -18 °F (2015)
Degree Days  
Heating Degree Days 42    
Moisture  
Dew Point 20 °F    
Average Humidity 84    
Maximum Humidity 93    
Minimum Humidity 74    
Precipitation  
Precipitation 0.00 in - - ()
Sea Level Pressure  
Sea Level Pressure 29.83 in    
Wind  
Wind Speed 7 mph (West)    
Max Wind Speed 10 mph    
Max Gust Speed -    
Visibility 7 miles    
Events Snow    
Averages and records for this station are not official NWS values.
T = Trace of Precipitation, MM = Missing Value Source: NWS Daily Summary

Daily Weather History Graph

Daily Weather History Graph

Search for Another Location

Airport or City:

Trip Planner

Search our weather history database for the weather conditions in past years. The results will help you decide how hot, cold, wet, or windy it might be!

Date:

Astronomy

Feb. 23, 2013 Rise Set
Actual Time 6:47 AM CST 5:40 PM CST
Civil Twilight 6:18 AM CST 6:10 PM CST
Nautical Twilight 5:44 AM CST 6:44 PM CST
Astronomical Twilight 5:10 AM CST 7:18 PM CST
Moon 3:48 PM CST (2/23) 5:13 AM CST (2/23)
Length of Visible Light 11h 51m
Length of Day
10h 52m
Waxing Gibbous, 95% of the Moon is Illuminated
Feb 23
Waxing Gibbous
Feb 25
Full
Mar 4
Last Quarter
Mar 11
New
Mar 19
First Quarter

Hourly Weather History & Observations

Time (CST) Temp. Windchill Dew Point Humidity Pressure Visibility Wind Dir Wind Speed Gust Speed Precip Events Conditions
12:54 AM 24.1 °F 15.2 °F 21.9 °F 91% 29.81 in 5.0 mi WNW 8.1 mph - 0.00 in Snow Light Snow
1:27 AM 23.0 °F 14.7 °F 21.2 °F 93% 29.76 in 7.0 mi WNW 6.9 mph - 0.00 in   Overcast
1:54 AM 23.0 °F 14.7 °F 21.0 °F 92% 29.81 in 7.0 mi WNW 6.9 mph - 0.00 in Snow Light Snow
2:07 AM 23.0 °F 14.7 °F 21.2 °F 93% 29.76 in 9.0 mi WNW 6.9 mph - 0.00 in   Overcast
2:54 AM 23.0 °F 14.7 °F 19.9 °F 88% 29.81 in 5.0 mi NW 6.9 mph - 0.00 in Snow Light Snow
3:01 AM 23.0 °F 14.7 °F 19.4 °F 86% 29.76 in 5.0 mi NW 6.9 mph - 0.00 in Snow Light Snow
3:54 AM 23.0 °F 14.7 °F 19.9 °F 88% 29.81 in 8.0 mi WNW 6.9 mph - 0.00 in   Overcast
4:23 AM 23.0 °F 15.8 °F 19.4 °F 86% 29.75 in 8.0 mi WNW 5.8 mph - N/A   Overcast
4:32 AM 23.0 °F 15.8 °F 19.4 °F 86% 29.75 in 6.0 mi West 5.8 mph - 0.00 in Snow Light Snow
4:54 AM 23.0 °F 15.8 °F 19.9 °F 88% 29.82 in 6.0 mi West 5.8 mph - 0.00 in Snow Light Snow
5:02 AM 23.0 °F 15.8 °F 19.4 °F 86% 29.76 in 6.0 mi West 5.8 mph - 0.00 in Snow Light Snow
6:54 AM 21.9 °F 12.5 °F 19.9 °F 92% 29.83 in 6.0 mi West 8.1 mph - 0.00 in   Overcast
7:54 AM 23.0 °F 13.9 °F 19.9 °F 88% 29.84 in 7.0 mi West 8.1 mph - N/A   Overcast
8:14 AM 21.2 °F 10.9 °F 19.4 °F 93% 29.78 in 2.0 mi West 9.2 mph - 0.00 in Snow Light Snow
8:36 AM 21.2 °F 11.7 °F 19.4 °F 93% 29.78 in 3.0 mi West 8.1 mph - 0.00 in Snow Light Snow
8:54 AM 21.9 °F 13.4 °F 19.0 °F 89% 29.85 in 4.0 mi West 6.9 mph - 0.00 in Snow Light Snow
9:49 AM 23.0 °F 12.4 °F 19.4 °F 86% 29.79 in 6.0 mi West 10.4 mph - 0.00 in   Overcast
9:54 AM 23.0 °F 13.1 °F 19.0 °F 85% 29.86 in 6.0 mi West 9.2 mph - 0.00 in   Overcast
10:42 AM 23.0 °F 12.4 °F 19.4 °F 86% 29.80 in 7.0 mi WNW 10.4 mph - 0.00 in   Overcast
10:54 AM 23.0 °F 13.9 °F 19.0 °F 85% 29.86 in 7.0 mi WNW 8.1 mph - 0.00 in   Overcast
11:05 AM 23.0 °F 13.9 °F 19.4 °F 86% 29.79 in 7.0 mi West 8.1 mph - N/A   Overcast
11:54 AM 24.1 °F 14.4 °F 19.0 °F 81% 29.85 in 9.0 mi West 9.2 mph - N/A   Mostly Cloudy
12:54 PM 25.0 °F 15.5 °F 19.0 °F 78% 29.84 in 9.0 mi WNW 9.2 mph - N/A   Overcast
1:54 PM 26.1 °F 16.2 °F 19.9 °F 78% 29.84 in 10.0 mi NW 10.4 mph - N/A   Overcast
2:08 PM 26.6 °F 16.8 °F 19.4 °F 74% 29.78 in 10.0 mi NW 10.4 mph - N/A   Overcast
2:54 PM 26.1 °F 16.8 °F 19.9 °F 78% 29.85 in 10.0 mi NNW 9.2 mph - N/A   Overcast
3:54 PM 25.0 °F 18.1 °F 18.0 °F 75% 29.86 in 10.0 mi WNW 5.8 mph - N/A   Mostly Cloudy
4:54 PM 26.1 °F 20.5 °F 19.0 °F 75% 29.86 in 10.0 mi West 4.6 mph - N/A   Overcast
5:54 PM 26.1 °F 19.4 °F 19.0 °F 75% 29.88 in 10.0 mi West 5.8 mph - N/A   Overcast
6:54 PM 25.0 °F 19.3 °F 19.0 °F 78% 29.89 in 10.0 mi WSW 4.6 mph - N/A   Mostly Cloudy
7:11 PM 24.8 °F 19.1 °F 19.4 °F 80% 29.83 in 10.0 mi WSW 4.6 mph - N/A   Overcast
7:54 PM 24.1 °F 17.0 °F 19.0 °F 81% 29.91 in 7.0 mi West 5.8 mph - N/A   Overcast
8:03 PM 24.8 °F 17.9 °F 19.4 °F 80% 29.84 in 8.0 mi WSW 5.8 mph - N/A   Overcast
8:20 PM 24.8 °F 16.9 °F 19.4 °F 80% 29.85 in 8.0 mi WSW 6.9 mph - N/A   Overcast
8:46 PM 24.8 °F 16.1 °F 19.4 °F 80% 29.86 in 6.0 mi West 8.1 mph - N/A   Haze
8:54 PM 24.1 °F 14.4 °F 19.9 °F 84% 29.92 in 6.0 mi West 9.2 mph - N/A   Overcast
10:54 PM 24.1 °F 17.0 °F 19.9 °F 84% 29.93 in 8.0 mi West 5.8 mph - N/A   Overcast
11:35 PM 24.8 °F 17.9 °F 19.4 °F 80% 29.88 in 8.0 mi West 5.8 mph - N/A   Overcast
11:54 PM 24.1 °F 16.0 °F 19.9 °F 84% 29.95 in 7.0 mi West 6.9 mph - N/A   Overcast